Find Starlink 1828

NORAD ID: 46725 Int'l Des: 2020-073 Owner: SPXS Country: US Constellation: starlink operational
LEOCIRCULAR

当前视图

正在加载3D地球...

About Starlink 1828

Starlink 1828 (NORAD 46725) is a starlink constellation satellite (v1.0) launched Oct 18, 2020 by SPXS of US. It operates in LEO, CIRCULAR orbit with a mass of 260.00 kg.

即将过境

Passes for default location (London). Set your location on the main map for personalized predictions.

高度历史

Loading altitude history...

两行轨道根数

1 46725U 20073BH 26266.00002315 .00868339 36700-3 16677-2 0 9994
2 46725 53.0391 338.7492 0002173 71.7064 171.0448 15.99973112 6021
Epoch: Sep 23, 2026 • Age: 8 hours

当前状态

高度 283.2 km
远地点 / 近地点 N/A
速度 7.74 km/s
星下点 -31.66°S, 169.79°W
发射日期 Oct 18, 2020
运行时间 5.9 years
类型 internet

技术详情

分类 Payload
质量 260.00 kg
干质量 248.00 kg
长度 0.20 m
跨度 9.00 m
形状 ? Box + pan
制造商 SPXS
平台类型 Starlink
阶段状态 In Orbit
所有者/国家 SPXS/US

Most Searched